TimeCDT,TemperatureF,Dew PointF,Humidity,Sea Level PressureIn,VisibilityMPH,Wind Direction,Wind SpeedMPH,Gust SpeedMPH,PrecipitationIn,Events,Conditions,WindDirDegrees,DateUTC
12:15 AM,80.6,64.4,58,29.83,10.0,SE,6.9,-,N/A,,Clear,130,2013-09-01 05:15:00
12:35 AM,80.6,64.4,58,29.83,10.0,ESE,6.9,-,N/A,,Clear,120,2013-09-01 05:35:00
12:55 AM,80.6,64.4,58,29.83,10.0,SE,6.9,-,N/A,,Clear,130,2013-09-01 05:55:00
1:15 AM,78.8,64.4,61,29.82,10.0,SE,3.5,-,N/A,,Clear,140,2013-09-01 06:15:00
1:35 AM,78.8,64.4,61,29.83,10.0,SSE,4.6,-,N/A,,Clear,160,2013-09-01 06:35:00
1:55 AM,78.8,64.4,61,29.83,10.0,SSE,5.8,-,N/A,,Clear,150,2013-09-01 06:55:00
2:15 AM,78.8,64.4,61,29.83,10.0,SE,4.6,-,N/A,,Clear,130,2013-09-01 07:15:00
2:35 AM,78.8,64.4,61,29.84,10.0,SSE,5.8,-,N/A,,Clear,150,2013-09-01 07:35:00
2:55 AM,78.8,62.6,57,29.84,10.0,SSE,5.8,-,N/A,,Clear,160,2013-09-01 07:55:00
3:15 AM,78.8,62.6,57,29.84,10.0,SSE,5.8,-,N/A,,Clear,150,2013-09-01 08:15:00
3:35 AM,78.8,62.6,57,29.84,10.0,SSE,5.8,-,N/A,,Clear,150,2013-09-01 08:35:00
3:55 AM,77.0,62.6,61,29.85,10.0,SE,8.1,-,N/A,,Clear,130,2013-09-01 08:55:00
4:15 AM,75.2,62.6,65,29.85,10.0,SSE,5.8,-,N/A,,Clear,150,2013-09-01 09:15:00
4:35 AM,75.2,62.6,65,29.85,10.0,SSE,5.8,-,N/A,,Clear,160,2013-09-01 09:35:00
4:55 AM,75.2,62.6,65,29.85,10.0,South,4.6,-,N/A,,Clear,170,2013-09-01 09:55:00
5:15 AM,75.2,62.6,65,29.86,10.0,SSE,5.8,-,N/A,,Clear,160,2013-09-01 10:15:00
5:35 AM,75.2,62.6,65,29.85,10.0,South,4.6,-,N/A,,Clear,170,2013-09-01 10:35:00
5:55 AM,75.2,62.6,65,29.85,10.0,South,5.8,-,N/A,,Clear,170,2013-09-01 10:55:00
6:15 AM,75.2,62.6,65,29.86,10.0,South,5.8,-,N/A,,Clear,180,2013-09-01 11:15:00
6:35 AM,75.2,62.6,65,29.86,10.0,South,5.8,-,N/A,,Clear,170,2013-09-01 11:35:00
6:55 AM,75.2,62.6,65,29.86,10.0,South,5.8,-,N/A,,Clear,170,2013-09-01 11:55:00
7:15 AM,75.2,62.6,65,29.86,10.0,South,5.8,-,N/A,,Clear,170,2013-09-01 12:15:00
7:35 AM,75.2,64.4,69,29.86,10.0,South,5.8,-,N/A,,Clear,170,2013-09-01 12:35:00
7:55 AM,77.0,64.4,65,29.87,10.0,South,5.8,-,N/A,,Clear,170,2013-09-01 12:55:00
8:15 AM,78.8,64.4,61,29.88,10.0,South,6.9,-,N/A,,Clear,180,2013-09-01 13:15:00
8:35 AM,80.6,64.4,58,29.89,10.0,South,9.2,-,N/A,,Clear,190,2013-09-01 13:35:00
8:55 AM,82.4,66.2,58,29.89,10.0,SSW,9.2,-,N/A,,Clear,210,2013-09-01 13:55:00
9:15 AM,82.4,66.2,58,29.90,10.0,SSW,9.2,-,N/A,,Clear,210,2013-09-01 14:15:00
9:35 AM,84.2,66.2,55,29.90,10.0,SSW,9.2,-,N/A,,Clear,210,2013-09-01 14:35:00
9:55 AM,87.8,66.2,49,29.90,10.0,SSW,11.5,16.1,N/A,,Clear,210,2013-09-01 14:55:00
10:15 AM,87.8,68.0,52,29.90,10.0,SW,9.2,-,N/A,,Clear,230,2013-09-01 15:15:00
10:35 AM,89.6,66.2,46,29.90,10.0,SW,10.4,-,N/A,,Clear,220,2013-09-01 15:35:00
10:55 AM,89.6,66.2,46,29.90,10.0,SW,9.2,-,N/A,,Clear,220,2013-09-01 15:55:00
11:15 AM,89.6,68.0,49,29.90,10.0,SW,9.2,-,N/A,,Clear,220,2013-09-01 16:15:00
11:35 AM,91.4,68.0,46,29.90,10.0,SSW,8.1,-,N/A,,Clear,200,2013-09-01 16:35:00
11:55 AM,93.2,68.0,44,29.89,10.0,South,8.1,-,N/A,,Clear,190,2013-09-01 16:55:00
12:15 PM,95.0,68.0,41,29.89,10.0,SW,8.1,-,N/A,,Clear,220,2013-09-01 17:15:00
12:35 PM,96.8,68.0,39,29.89,10.0,SSW,6.9,-,N/A,,Clear,200,2013-09-01 17:35:00
12:55 PM,98.6,69.8,39,29.88,10.0,SW,9.2,-,N/A,,Clear,230,2013-09-01 17:55:00
1:15 PM,98.6,68.0,37,29.87,10.0,SW,8.1,-,N/A,,Clear,220,2013-09-01 18:15:00
1:35 PM,98.6,68.0,37,29.87,10.0,SW,5.8,-,N/A,,Clear,220,2013-09-01 18:35:00
1:55 PM,98.6,68.0,37,29.86,10.0,South,6.9,-,N/A,,Clear,190,2013-09-01 18:55:00
2:15 PM,98.6,66.2,35,29.86,10.0,SSW,5.8,-,N/A,,Clear,210,2013-09-01 19:15:00
2:35 PM,98.6,66.2,35,29.85,10.0,SW,6.9,-,N/A,,Clear,220,2013-09-01 19:35:00
2:55 PM,98.6,66.2,35,29.84,10.0,SW,6.9,-,N/A,,Clear,230,2013-09-01 19:55:00
3:15 PM,100.4,64.4,31,29.84,10.0,West,9.2,-,N/A,,Clear,260,2013-09-01 20:15:00
3:35 PM,100.4,66.2,33,29.83,10.0,SSW,11.5,-,N/A,,Clear,210,2013-09-01 20:35:00
3:55 PM,100.4,64.4,31,29.82,10.0,South,9.2,-,N/A,,Clear,190,2013-09-01 20:55:00
4:15 PM,102.2,64.4,29,29.80,10.0,SSW,9.2,-,N/A,,Clear,200,2013-09-01 21:15:00
4:35 PM,100.4,64.4,31,29.79,10.0,WSW,4.6,-,N/A,,Clear,240,2013-09-01 21:35:00
4:55 PM,102.2,64.4,29,29.79,10.0,SSW,6.9,-,N/A,,Clear,200,2013-09-01 21:55:00
5:15 PM,102.2,64.4,29,29.79,10.0,South,10.4,-,N/A,,Clear,180,2013-09-01 22:15:00
5:35 PM,100.4,64.4,31,29.79,10.0,South,6.9,-,N/A,,Clear,170,2013-09-01 22:35:00
5:55 PM,100.4,62.6,29,29.79,10.0,SSW,4.6,-,N/A,,Clear,200,2013-09-01 22:55:00
6:15 PM,98.6,62.6,30,29.79,10.0,South,8.1,-,N/A,,Clear,170,2013-09-01 23:15:00
6:35 PM,98.6,62.6,30,29.80,10.0,SSE,4.6,-,N/A,,Clear,160,2013-09-01 23:35:00
6:55 PM,96.8,62.6,32,29.80,10.0,SSE,5.8,-,N/A,,Clear,160,2013-09-01 23:55:00
7:15 PM,95.0,62.6,34,29.81,10.0,SSE,5.8,-,N/A,,Clear,160,2013-09-02 00:15:00
7:35 PM,95.0,62.6,34,29.81,10.0,Calm,Calm,-,N/A,,Clear,0,2013-09-02 00:35:00
7:55 PM,91.4,62.6,38,29.82,10.0,North,9.2,-,N/A,,Clear,10,2013-09-02 00:55:00
8:15 PM,89.6,62.6,40,29.84,10.0,NW,13.8,-,N/A,,Clear,320,2013-09-02 01:15:00
8:35 PM,87.8,64.4,46,29.84,10.0,NW,13.8,-,N/A,,Clear,320,2013-09-02 01:35:00
8:55 PM,87.8,64.4,46,29.84,10.0,NW,8.1,-,N/A,,Clear,310,2013-09-02 01:55:00
9:15 PM,86.0,64.4,48,29.85,10.0,ENE,8.1,-,N/A,,Clear,70,2013-09-02 02:15:00
9:35 PM,84.2,64.4,51,29.88,10.0,SSW,6.9,-,N/A,,Clear,200,2013-09-02 02:35:00
9:55 PM,86.0,64.4,48,29.87,10.0,SSE,6.9,-,N/A,,Clear,150,2013-09-02 02:55:00
10:15 PM,84.2,64.4,51,29.88,10.0,NNE,6.9,-,N/A,,Clear,30,2013-09-02 03:15:00
10:35 PM,84.2,64.4,51,29.90,10.0,North,8.1,-,N/A,,Clear,10,2013-09-02 03:35:00
10:55 PM,84.2,62.6,48,29.91,10.0,NNE,10.4,-,N/A,,Clear,30,2013-09-02 03:55:00
11:15 PM,84.2,64.4,51,29.90,10.0,NE,10.4,-,N/A,,Clear,40,2013-09-02 04:15:00
11:35 PM,84.2,64.4,51,29.89,10.0,NE,11.5,-,N/A,,Clear,50,2013-09-02 04:35:00
11:55 PM,84.2,64.4,51,29.89,10.0,ENE,11.5,-,N/A,,Clear,70,2013-09-02 04:55:00